KB1GNF Weather Reports


Display with metric or nautical units.
time (UTC)temp
F
wind
direction
speed
MPH
gust
MPH
rain 1hr
in
rain 24hr
in
rain mn
in
humidity
%
barometer
mb
20260508134005 49 344 2.0 9.0 0.00 0.00 0.00 57 1010.8
20260508133508 49 217 2.0 6.0 0.00 0.00 0.00 58 1010.8
20260508133019 49 299 1.0 3.0 0.00 0.00 0.00 58 1010.8
20260508131519 48 337 1.0 6.0 0.00 0.00 0.00 62 1010.9
20260508130509 47 138 0.0 2.0 0.00 0.00 0.00 64 1010.8
20260508130022 47 68 0.0 3.0 0.00 0.00 0.00 64 1010.9
20260508125504 46 17 1.0 3.0 0.00 0.00 0.00 68 1011.0
20260508125003 46 26 0.0 2.0 0.00 0.00 0.00 70 1010.9
20260508124507 45 72 0.0 2.0 0.00 0.00 0.00 72 1010.8
20260508124004 45 73 0.0 3.0 0.00 0.00 0.00 73 1010.9
20260508123504 44 347 1.0 3.0 0.00 0.00 0.00 73 1011.0
20260508123012 44 340 0.0 2.0 0.00 0.00 0.00 77 1011.0
20260508122504 43 85 0.0 2.0 0.00 0.00 0.00 75 1010.9
20260508122003 43 112 0.0 2.0 0.00 0.00 0.00 74 1010.9
20260508121514 43 98 1.0 2.0 0.00 0.00 0.00 74 1010.9
20260508121008 43 59 0.0 1.0 0.00 0.00 0.00 75 1010.9
20260508120020 43 218 0.0 2.0 0.00 0.00 0.00 76 1010.9
20260508114523 42 226 1.0 4.0 0.00 0.00 0.00 78 1010.6
20260508114004 42 122 2.0 4.0 0.00 0.00 0.00 79 1010.5
20260508113505 42 161 1.0 4.0 0.00 0.00 0.00 78 1010.5
20260508113008 42 226 0.0 4.0 0.00 0.00 0.00 78 1010.6
20260508112503 42 233 0.0 4.0 0.00 0.00 0.00 79 1010.3
20260508112004 42 193 1.0 2.0 0.00 0.00 0.00 81 1010.4
20260508111514 41 135 0.0 2.0 0.00 0.00 0.00 82 1010.4
20260508111009 40 174 0.0 2.0 0.00 0.00 0.00 85 1010.5
20260508110504 39 84 0.0 2.0 0.00 0.00 0.00 86 1010.6
20260508110032 38 117 0.0 2.0 0.00 0.00 0.00 87 1010.6
20260508105508 37 84 1.0 2.0 0.00 0.00 0.00 86 1010.4
20260508105009 37 89 1.0 2.0 0.00 0.00 0.00 86 1010.3
20260508104520 38 74 0.0 0.0 0.00 0.00 0.00 86 1010.3
20260508104006 38 109 0.0 0.0 0.00 0.00 0.00 86 1010.2
20260508103506 38 143 0.0 0.0 0.00 0.00 0.00 88 1010.3
20260508102506 36 247 0.0 0.0 0.00 0.00 0.00 92 1010.2
20260508102002 35 247 0.0 0.0 0.00 0.00 0.00 92 1010.2
20260508101508 34 247 0.0 0.0 0.00 0.00 0.00 91 1010.0
20260508101005 33 247 0.0 0.0 0.00 0.00 0.00 92 1010.0
20260508100504 32 247 0.0 0.0 0.00 0.00 0.00 92 1009.9
20260508100020 32 247 0.0 0.0 0.00 0.00 0.00 92 1009.9
20260508095504 32 247 0.0 0.0 0.00 0.00 0.00 92 1009.8
20260508095004 32 247 0.0 0.0 0.00 0.00 0.00 92 1009.8
20260508094007 32 247 0.0 0.0 0.00 0.00 0.00 91 1009.9
20260508092010 33 247 0.0 0.0 0.00 0.00 0.00 91 1009.8
20260508091526 33 247 0.0 0.0 0.00 0.00 0.00 91 1009.7
20260508091008 33 247 0.0 0.0 0.00 0.00 0.00 91 1009.7
20260508090507 33 247 0.0 0.0 0.00 0.00 0.00 91 1009.5
20260508090015 33 247 0.0 0.0 0.00 0.00 0.00 91 1009.6
20260508085504 33 247 0.0 0.0 0.00 0.00 0.00 91 1009.7
20260508085005 33 247 0.0 0.0 0.00 0.00 0.00 91 1009.7
20260508084515 32 247 0.0 0.0 0.00 0.00 0.00 91 1009.7
20260508084003 32 247 0.0 0.0 0.00 0.00 0.00 90 1009.6
20260508083503 32 247 0.0 0.0 0.00 0.00 0.00 90 1009.6
20260508083020 32 247 0.0 0.0 0.00 0.00 0.00 90 1009.6
20260508082509 32 247 0.0 0.0 0.00 0.00 0.00 90 1009.5
20260508082008 32 247 0.0 0.0 0.00 0.00 0.00 90 1009.5
20260508081523 32 247 0.0 0.0 0.00 0.00 0.00 90 1009.5
20260508081007 32 247 0.0 0.0 0.00 0.00 0.00 90 1009.4
20260508080514 32 247 0.0 0.0 0.00 0.00 0.00 90 1009.5
20260508080026 32 247 0.0 0.0 0.00 0.00 0.00 89 1009.6
20260508075510 32 247 0.0 0.0 0.00 0.00 0.00 89 1009.6
20260508075015 32 247 0.0 0.0 0.00 0.00 0.00 90 1009.5
20260508074535 32 247 0.0 0.0 0.00 0.00 0.00 89 1009.5
20260508074005 32 247 0.0 0.0 0.00 0.00 0.00 89 1009.5
20260508073504 32 247 0.0 0.0 0.00 0.00 0.00 89 1009.5
20260508073018 32 257 0.0 0.0 0.00 0.00 0.00 89 1009.4
20260508072507 32 272 0.0 0.0 0.00 0.00 0.00 89 1009.3
20260508072010 32 272 0.0 0.0 0.00 0.00 0.00 89 1009.3
20260508071522 32 272 0.0 0.0 0.00 0.00 0.00 89 1009.2
20260508071007 33 272 0.0 0.0 0.00 0.00 0.00 89 1009.1
20260508070509 33 272 0.0 0.0 0.00 0.00 0.00 89 1009.1
20260508070007 33 272 0.0 0.0 0.00 0.00 0.00 89 1009.0
20260508065504 33 272 0.0 0.0 0.00 0.00 0.00 89 1008.9
20260508065006 33 272 0.0 0.0 0.00 0.00 0.00 88 1008.9
20260508064513 33 272 0.0 0.0 0.00 0.00 0.00 88 1008.8
20260508064005 33 272 0.0 0.0 0.00 0.00 0.00 88 1008.7
20260508063506 33 272 0.0 0.0 0.00 0.00 0.00 88 1008.7
20260508063012 34 272 0.0 0.0 0.00 0.00 0.00 88 1008.7
20260508062505 34 272 0.0 0.0 0.00 0.00 0.00 87 1008.7
20260508062006 34 272 0.0 0.0 0.00 0.00 0.00 87 1008.8
20260508061520 34 272 0.0 0.0 0.00 0.00 0.00 87 1008.7
20260508061014 34 272 0.0 0.0 0.00 0.00 0.00 86 1008.7
20260508060508 35 272 0.0 0.0 0.00 0.00 0.00 86 1008.6
20260508060007 35 272 0.0 0.0 0.00 0.00 0.00 86 1008.6
20260508055504 35 264 0.0 0.0 0.00 0.00 0.00 86 1008.6
20260508055003 35 264 0.0 0.0 0.00 0.00 0.00 85 1008.7
20260508054507 35 243 0.0 0.0 0.00 0.00 0.00 85 1008.8
20260508054004 35 243 0.0 0.0 0.00 0.00 0.00 85 1008.8
20260508053504 35 243 0.0 0.0 0.00 0.00 0.00 85 1008.7
20260508053014 36 243 0.0 0.0 0.00 0.00 0.00 84 1008.8
20260508052510 36 243 0.0 0.0 0.00 0.00 0.00 84 1008.8
20260508052007 36 243 0.0 0.0 0.00 0.00 0.00 84 1008.9
20260508051515 36 243 0.0 0.0 0.00 0.00 0.00 84 1008.9
20260508050510 36 243 0.0 0.0 0.00 0.00 0.00 83 1008.9
20260508050020 36 243 0.0 0.0 0.00 0.00 0.00 83 1008.9
20260508045505 36 243 0.0 0.0 0.00 0.00 0.00 82 1008.8
20260508044504 37 243 0.0 0.0 0.00 0.00 0.00 82 1009.0
20260508044004 37 243 0.0 0.0 0.00 0.00 0.00 82 1009.0
20260508043503 37 243 0.0 0.0 0.00 0.00 0.00 82 1009.0
20260508043008 37 243 0.0 0.0 0.00 0.00 0.00 82 1009.0
20260508042504 37 243 0.0 1.0 0.00 0.00 0.00 81 1009.1
20260508042005 38 243 0.0 1.0 0.00 0.00 0.00 82 1009.1
20260508041518 38 242 0.0 1.0 0.00 0.00 0.00 82 1009.1
20260508040509 38 242 0.0 1.0 0.00 0.00 0.00 82 1009.1
20260508040019 38 57 0.0 1.0 0.00 0.00 0.00 82 1009.1
20260508035505 38 57 0.0 1.0 0.00 0.00 0.00 82 1009.1
20260508034521 39 344 0.0 3.0 0.00 0.00 0.00 81 1009.1
20260508033509 39 338 0.0 1.0 0.00 0.00 0.00 80 1009.2
20260508033027 39 283 0.0 1.0 0.00 0.00 0.00 79 1009.1
20260508032503 39 295 0.0 1.0 0.00 0.00 0.00 78 1009.0
20260508032006 39 253 0.0 3.0 0.00 0.00 0.00 79 1009.0
20260508031508 39 347 0.0 3.0 0.00 0.00 0.00 80 1009.2
20260508031004 40 3 1.0 3.0 0.00 0.00 0.00 78 1009.0
20260508030505 40 197 0.0 0.0 0.00 0.00 0.00 76 1009.0
20260508030022 40 197 0.0 0.0 0.00 0.00 0.00 75 1009.1
20260508024519 41 196 0.0 0.0 0.00 0.00 0.00 73 1009.0
20260508023021 42 195 0.0 0.0 0.00 0.00 0.00 71 1009.0
20260508021522 44 230 0.0 1.0 0.00 0.00 0.00 68 1008.9
20260508020503 44 235 1.0 2.0 0.00 0.01 0.00 65 1008.8
20260508020020 45 214 0.0 1.0 0.00 0.02 0.00 63 1008.8
20260508015503 45 221 0.0 2.0 0.00 0.05 0.00 61 1008.9
20260508015003 46 209 0.0 2.0 0.00 0.06 0.00 59 1008.8
20260508014515 46 231 0.0 0.0 0.00 0.06 0.00 60 1008.8
20260508013020 46 250 0.0 3.0 0.00 0.06 0.00 59 1008.6
20260508011524 46 226 1.0 2.0 0.00 0.06 0.00 58 1008.3
20260508010028 47 262 0.0 2.0 0.00 0.06 0.00 60 1008.2
20260508004513 48 252 1.0 2.0 0.00 0.07 0.00 57 1008.2
20260508004005 48 235 0.0 2.0 0.00 0.07 0.00 57 1008.2
20260508003503 48 256 0.0 2.0 0.00 0.07 0.00 56 1008.1
20260508003019 49 240 0.0 1.0 0.00 0.07 0.00 55 1008.0
20260508001520 51 231 1.0 2.0 0.00 0.10 0.00 49 1007.8
20260507235508 52 262 0.0 0.0 0.00 0.11 0.00 48 1007.5
20260507235015 52 214 0.0 2.0 0.00 0.11 0.00 47 1007.5
20260507234526 53 10 0.0 2.0 0.00 0.11 0.00 46 1007.4
20260507234007 53 242 1.0 5.0 0.00 0.11 0.00 45 1007.3
20260507233509 53 253 1.0 5.0 0.00 0.11 0.00 44 1007.2
20260507231003 54 278 3.0 10.0 0.00 0.11 0.00 42 1007.2
20260507224006 55 252 1.0 8.0 0.00 0.11 0.00 42 1007.4
20260507223011 56 308 1.0 13.0 0.00 0.12 0.00 41 1007.3
20260507222006 56 277 5.0 11.0 0.00 0.12 0.00 40 1007.2
20260507220504 56 316 2.0 12.0 0.00 0.12 0.00 41 1007.1
20260507215503 57 330 1.0 8.0 0.00 0.12 0.00 42 1007.2
20260507215003 57 314 2.0 8.0 0.00 0.12 0.00 42 1007.1
20260507212004 56 269 2.0 7.0 0.00 0.12 0.00 43 1007.0
20260507211513 56 252 1.0 8.0 0.00 0.12 0.00 42 1007.0
20260507211006 57 290 2.0 8.0 0.00 0.12 0.00 42 1007.0
20260507210508 57 345 3.0 8.0 0.00 0.12 0.00 41 1006.8
20260507210017 58 249 1.0 12.0 0.00 0.12 0.00 41 1006.8
20260507205508 58 10 3.0 12.0 0.00 0.12 0.00 40 1006.8
20260507204003 58 290 3.0 11.0 0.00 0.12 0.00 40 1006.8
20260507202504 57 323 4.0 10.0 0.00 0.12 0.00 41 1006.9
20260507201514 58 33 2.0 10.0 0.00 0.12 0.00 40 1006.9
20260507201007 59 267 4.0 14.0 0.00 0.12 0.00 37 1006.9
20260507200508 59 299 2.0 14.0 0.00 0.12 0.00 39 1006.8
20260507200014 58 320 1.0 14.0 0.00 0.12 0.00 37 1006.9
20260507195509 59 321 3.0 14.0 0.00 0.12 0.00 36 1007.0
20260507194520 60 301 3.0 9.0 0.00 0.12 0.00 39 1007.0
20260507193507 60 312 2.0 8.0 0.00 0.12 0.00 40 1007.0
20260507192508 60 268 2.0 12.0 0.00 0.13 0.00 37 1007.0
20260507191512 60 352 7.0 14.0 0.00 0.14 0.00 38 1007.0
20260507190506 59 301 3.0 8.0 0.00 0.15 0.00 38 1007.2
20260507190013 59 236 3.0 13.0 0.00 0.15 0.00 38 1007.3
20260507185506 60 277 5.0 13.0 0.00 0.16 0.00 36 1007.3
20260507185006 61 225 3.0 9.0 0.00 0.16 0.00 37 1007.2
20260507184518 61 278 3.0 9.0 0.00 0.16 0.00 36 1007.4
20260507184005 61 175 2.0 15.0 0.00 0.17 0.00 37 1007.4
20260507183507 60 216 3.0 15.0 0.00 0.18 0.00 39 1007.5
20260507182508 61 340 3.0 12.0 0.00 0.20 0.00 38 1007.6
20260507181524 60 298 3.0 11.0 0.00 0.20 0.00 38 1007.7
20260507181007 60 6 4.0 11.0 0.00 0.21 0.00 40 1007.8
20260507180502 58 158 2.0 7.0 0.00 0.21 0.00 39 1007.7
20260507175503 60 247 2.0 12.0 0.00 0.22 0.00 42 1007.9
20260507175004 60 229 3.0 8.0 0.00 0.23 0.00 39 1007.9
20260507174517 60 359 3.0 8.0 0.00 0.24 0.00 42 1007.8
20260507174007 60 311 2.0 8.0 0.00 0.25 0.00 41 1007.7
20260507173504 60 293 2.0 7.0 0.00 0.26 0.00 42 1007.7
20260507172505 59 1 2.0 6.0 0.00 0.28 0.00 39 1007.8
20260507172009 60 186 4.0 11.0 0.00 0.29 0.00 42 1007.7
20260507170508 59 295 4.0 9.0 0.00 0.32 0.00 44 1007.8
20260507170026 57 234 3.0 9.0 0.00 0.33 0.00 42 1007.9
20260507165510 57 343 2.0 10.0 0.00 0.34 0.00 45 1007.9
20260507165002 57 10 4.0 10.0 0.00 0.34 0.00 45 1008.0
20260507164007 57 339 4.0 8.0 0.00 0.34 0.00 47 1008.2
20260507163504 57 321 1.0 8.0 0.00 0.35 0.00 44 1008.3
20260507162512 57 336 4.0 11.0 0.00 0.35 0.00 47 1008.5
20260507162010 56 346 5.0 15.0 0.00 0.35 0.00 44 1008.6
20260507161011 57 9 9.0 18.0 0.00 0.35 0.00 45 1008.6
20260507160508 57 356 7.0 12.0 0.00 0.35 0.00 42 1008.7
20260507155511 58 314 2.0 11.0 0.00 0.35 0.00 44 1008.8
20260507155010 58 304 5.0 11.0 0.00 0.35 0.00 43 1008.8
20260507154524 57 328 2.0 8.0 0.00 0.35 0.00 43 1009.0
20260507154011 57 349 3.0 10.0 0.00 0.35 0.00 43 1009.1
20260507153504 57 324 5.0 12.0 0.00 0.35 0.00 46 1009.1
20260507153012 57 300 4.0 13.0 0.00 0.35 0.00 46 1009.1
20260507152504 56 295 3.0 13.0 0.00 0.35 0.00 46 1009.1
20260507152010 56 345 3.0 9.0 0.00 0.35 0.00 51 1009.0
20260507151009 57 12 1.0 7.0 0.00 0.35 0.00 46 1009.1
20260507150508 57 226 3.0 8.0 0.00 0.35 0.00 44 1009.1
20260507145509 56 278 3.0 11.0 0.00 0.35 0.00 49 1009.3
20260507145008 56 341 3.0 11.0 0.00 0.35 0.00 46 1009.3
20260507144530 55 267 4.0 11.0 0.00 0.35 0.00 46 1009.4
20260507144009 55 340 1.0 15.0 0.00 0.35 0.00 47 1009.4
20260507143508 55 329 4.0 15.0 0.00 0.35 0.00 47 1009.5
20260507143028 55 270 7.0 14.0 0.00 0.35 0.00 49 1009.4
20260507142508 55 280 6.0 10.0 0.00 0.35 0.00 45 1009.3
20260507142009 55 294 3.0 8.0 0.00 0.35 0.00 48 1009.3
20260507141517 55 325 5.0 13.0 0.00 0.35 0.00 47 1009.3
20260507141012 54 288 5.0 15.0 0.00 0.35 0.00 51 1009.4
20260507140509 55 334 4.0 15.0 0.00 0.35 0.00 50 1009.3
20260507135503 55 304 4.0 12.0 0.00 0.35 0.00 48 1009.2
20260507135003 55 282 4.0 11.0 0.00 0.35 0.00 53 1009.2